Time,TemperatureF,DewpointF,PressureIn,WindDirection,WindDirectionDegrees,WindSpeedMPH,WindSpeedGustMPH,Humidity,HourlyPrecipIn,Conditions,Clouds,dailyrainin,SoftwareType,DateUTC
2013-03-03 00:09:00,38.2,28.6,30.17,SSE,164,2.0,3.0,68,0.00,,,0.00,Wunderground v.1.15,2013-03-03 08:09:00,
2013-03-03 00:14:00,38.2,29.3,30.17,SSE,157,2.0,4.0,70,0.00,,,0.00,Wunderground v.1.15,2013-03-03 08:14:00,
2013-03-03 00:23:00,38.5,28.9,30.17,SSE,160,2.0,2.0,68,0.00,,,0.00,Wunderground v.1.15,2013-03-03 08:23:00,
2013-03-03 00:29:00,39.3,28.5,30.17,SSE,167,3.0,3.0,65,0.00,,,0.00,Wunderground v.1.15,2013-03-03 08:29:00,
2013-03-03 00:38:00,39.2,28.0,30.17,SSW,192,2.0,3.0,64,0.00,,,0.00,Wunderground v.1.15,2013-03-03 08:38:00,
2013-03-03 00:44:00,39.9,27.9,30.17,SSW,208,3.0,3.0,62,0.00,,,0.00,Wunderground v.1.15,2013-03-03 08:44:00,
2013-03-03 00:54:00,40.1,28.1,30.17,NNW,336,2.0,4.0,62,0.00,,,0.00,Wunderground v.1.15,2013-03-03 08:54:00,
2013-03-03 00:59:00,40.1,28.1,30.18,SSW,209,1.0,2.0,62,0.00,,,0.00,Wunderground v.1.15,2013-03-03 08:59:00,
2013-03-03 01:08:00,39.9,28.7,30.18,WNW,284,2.0,3.0,64,0.00,,,0.00,Wunderground v.1.15,2013-03-03 09:08:00,
2013-03-03 01:14:00,39.8,28.6,30.18,West,275,2.0,3.0,64,0.00,,,0.00,Wunderground v.1.15,2013-03-03 09:14:00,
2013-03-03 01:23:00,39.9,29.1,30.18,West,276,3.0,3.0,65,0.00,,,0.00,Wunderground v.1.15,2013-03-03 09:23:00,
2013-03-03 01:29:00,40.1,29.3,30.18,West,265,3.0,3.0,65,0.00,,,0.00,Wunderground v.1.15,2013-03-03 09:29:00,
2013-03-03 01:39:00,39.9,31.3,30.18,WNW,283,1.0,1.0,71,0.00,,,0.00,Wunderground v.1.15,2013-03-03 09:39:00,
2013-03-03 01:44:00,39.9,29.8,30.19,SSW,208,2.0,2.0,67,0.00,,,0.00,Wunderground v.1.15,2013-03-03 09:44:00,
2013-03-03 01:53:00,39.9,29.8,30.19,WSW,242,2.0,4.0,67,0.00,,,0.00,Wunderground v.1.15,2013-03-03 09:53:00,
2013-03-03 01:59:00,39.9,29.8,30.19,WSW,257,2.0,2.0,67,0.00,,,0.00,Wunderground v.1.15,2013-03-03 09:59:00,
2013-03-03 02:08:00,39.9,29.8,30.19,SW,234,2.0,2.0,67,0.00,,,0.00,Wunderground v.1.15,2013-03-03 10:08:00,
2013-03-03 02:14:00,39.8,29.7,30.19,SW,229,2.0,2.0,67,0.00,,,0.00,Wunderground v.1.15,2013-03-03 10:14:00,
2013-03-03 02:23:00,39.3,30.0,30.19,South,188,2.0,2.0,69,0.00,,,0.00,Wunderground v.1.15,2013-03-03 10:23:00,
2013-03-03 02:29:00,38.9,29.6,30.20,South,182,2.0,3.0,69,0.00,,,0.00,Wunderground v.1.15,2013-03-03 10:29:00,
2013-03-03 02:38:00,38.9,29.2,30.20,SSW,198,2.0,2.0,68,0.00,,,0.00,Wunderground v.1.15,2013-03-03 10:38:00,
2013-03-03 02:44:00,39.1,29.4,30.20,South,184,3.0,3.0,68,0.00,,,0.00,Wunderground v.1.15,2013-03-03 10:44:00,
2013-03-03 02:53:00,38.9,29.2,30.20,South,169,1.0,4.0,68,0.00,,,0.00,Wunderground v.1.15,2013-03-03 10:53:00,
2013-03-03 02:59:00,38.5,29.2,30.20,SSW,192,2.0,3.0,69,0.00,,,0.00,Wunderground v.1.15,2013-03-03 10:59:00,
2013-03-03 03:08:00,38.6,29.3,30.20,SSW,192,4.0,5.0,69,0.00,,,0.00,Wunderground v.1.15,2013-03-03 11:08:00,
2013-03-03 03:14:00,39.1,29.4,30.20,ESE,120,3.0,5.0,68,0.00,,,0.00,Wunderground v.1.15,2013-03-03 11:14:00,
2013-03-03 03:23:00,38.9,29.6,30.20,South,190,1.0,3.0,69,0.00,,,0.00,Wunderground v.1.15,2013-03-03 11:23:00,
2013-03-03 03:29:00,38.8,29.5,30.20,South,190,1.0,1.0,69,0.00,,,0.00,Wunderground v.1.15,2013-03-03 11:29:00,
2013-03-03 03:38:00,38.3,29.4,30.20,South,181,1.0,1.0,70,0.00,,,0.00,Wunderground v.1.15,2013-03-03 11:38:00,
2013-03-03 03:44:00,38.2,29.6,30.20,South,181,1.0,1.0,71,0.00,,,0.00,Wunderground v.1.15,2013-03-03 11:44:00,
2013-03-03 03:53:00,37.6,29.7,30.20,South,178,1.0,1.0,73,0.00,,,0.00,Wunderground v.1.15,2013-03-03 11:53:00,
2013-03-03 03:59:00,36.3,29.1,30.20,South,178,0.0,0.0,75,0.00,,,0.00,Wunderground v.1.15,2013-03-03 11:59:00,
2013-03-03 04:08:00,35.5,29.6,30.20,South,177,1.0,1.0,79,0.00,,,0.00,Wunderground v.1.15,2013-03-03 12:08:00,
2013-03-03 04:14:00,36.2,29.7,30.21,South,173,1.0,2.0,77,0.00,,,0.00,Wunderground v.1.15,2013-03-03 12:14:00,
2013-03-03 04:23:00,36.6,29.7,30.21,SSE,163,1.0,1.0,76,0.00,,,0.00,Wunderground v.1.15,2013-03-03 12:23:00,
2013-03-03 04:29:00,36.0,29.5,30.21,SSE,149,1.0,1.0,77,0.00,,,0.00,Wunderground v.1.15,2013-03-03 12:29:00,
2013-03-03 04:38:00,34.9,29.4,30.21,SSE,148,0.0,2.0,80,0.00,,,0.00,Wunderground v.1.15,2013-03-03 12:38:00,
2013-03-03 04:44:00,34.0,28.8,30.21,SSE,148,0.0,2.0,81,0.00,,,0.00,Wunderground v.1.15,2013-03-03 12:44:00,
2013-03-03 04:53:00,34.0,29.7,30.21,SSE,148,1.0,1.0,84,0.00,,,0.00,Wunderground v.1.15,2013-03-03 12:53:00,
2013-03-03 04:59:00,34.3,30.0,30.22,SSE,148,1.0,1.0,84,0.00,,,0.00,Wunderground v.1.15,2013-03-03 12:59:00,
2013-03-03 05:08:00,35.2,30.0,30.22,SSE,149,0.0,0.0,81,0.00,,,0.00,Wunderground v.1.15,2013-03-03 13:08:00,
2013-03-03 05:14:00,35.5,30.2,30.23,SSE,149,0.0,0.0,81,0.00,,,0.00,Wunderground v.1.15,2013-03-03 13:14:00,
2013-03-03 05:23:00,36.0,30.1,30.23,SE,125,0.0,2.0,79,0.00,,,0.00,Wunderground v.1.15,2013-03-03 13:23:00,
2013-03-03 05:29:00,36.5,30.0,30.23,ESE,123,1.0,1.0,77,0.00,,,0.00,Wunderground v.1.15,2013-03-03 13:29:00,
2013-03-03 05:38:00,37.0,30.1,30.23,ESE,123,0.0,0.0,76,0.00,,,0.00,Wunderground v.1.15,2013-03-03 13:38:00,
2013-03-03 05:44:00,37.0,30.1,30.23,NNE,32,1.0,1.0,76,0.00,,,0.00,Wunderground v.1.15,2013-03-03 13:44:00,
2013-03-03 05:53:00,38.2,29.6,30.23,WNW,294,2.0,2.0,71,0.00,,,0.00,Wunderground v.1.15,2013-03-03 13:53:00,
2013-03-03 05:59:00,38.8,29.8,30.23,WSW,238,2.0,3.0,70,0.00,,,0.00,Wunderground v.1.15,2013-03-03 13:59:00,
2013-03-03 06:08:00,39.5,29.8,30.23,West,276,2.0,2.0,68,0.00,,,0.00,Wunderground v.1.15,2013-03-03 14:08:00,
2013-03-03 06:14:00,39.5,29.4,30.23,WSW,251,2.0,2.0,67,0.00,,,0.00,Wunderground v.1.15,2013-03-03 14:14:00,
2013-03-03 06:23:00,39.8,29.7,30.23,SSW,196,2.0,3.0,67,0.00,,,0.00,Wunderground v.1.15,2013-03-03 14:23:00,
2013-03-03 06:28:00,39.8,29.7,30.23,WSW,246,2.0,2.0,67,0.00,,,0.00,Wunderground v.1.15,2013-03-03 14:28:00,
2013-03-03 06:38:00,39.6,29.5,30.23,WSW,244,2.0,2.0,67,0.00,,,0.00,Wunderground v.1.15,2013-03-03 14:38:00,
2013-03-03 06:43:00,39.8,29.7,30.23,SW,222,2.0,2.0,67,0.00,,,0.00,Wunderground v.1.15,2013-03-03 14:43:00,
2013-03-03 06:53:00,39.5,29.4,30.23,WSW,245,1.0,1.0,67,0.00,,,0.00,Wunderground v.1.15,2013-03-03 14:53:00,
2013-03-03 06:58:00,39.5,29.4,30.23,WNW,284,1.0,2.0,67,0.00,,,0.00,Wunderground v.1.15,2013-03-03 14:58:00,
2013-03-03 07:08:00,39.1,29.4,30.23,West,264,1.0,1.0,68,0.00,,,0.00,Wunderground v.1.15,2013-03-03 15:08:00,
2013-03-03 07:15:00,38.3,29.0,30.23,West,264,0.0,1.0,69,0.00,,,0.00,Wunderground v.1.15,2013-03-03 15:15:00,
2013-03-03 07:24:00,36.8,29.0,30.23,West,264,0.0,0.0,73,0.00,,,0.00,Wunderground v.1.15,2013-03-03 15:24:00,
2013-03-03 07:30:00,36.6,29.1,30.23,West,265,0.0,0.0,74,0.00,,,0.00,Wunderground v.1.15,2013-03-03 15:30:00,
2013-03-03 07:39:00,37.2,29.3,30.23,West,265,0.0,0.0,73,0.00,,,0.00,Wunderground v.1.15,2013-03-03 15:39:00,
2013-03-03 07:45:00,37.6,29.7,30.23,West,265,0.0,0.0,73,0.00,,,0.00,Wunderground v.1.15,2013-03-03 15:45:00,
2013-03-03 07:54:00,37.8,29.2,30.23,West,270,0.0,0.0,71,0.00,,,0.00,Wunderground v.1.15,2013-03-03 15:54:00,
2013-03-03 08:00:00,38.0,29.4,30.24,West,270,0.0,0.0,71,0.00,,,0.00,Wunderground v.1.15,2013-03-03 16:00:00,
2013-03-03 08:09:00,38.9,29.6,30.24,West,269,0.0,0.0,69,0.00,,,0.00,Wunderground v.1.15,2013-03-03 16:09:00,
2013-03-03 08:14:00,39.3,30.0,30.24,West,269,0.0,0.0,69,0.00,,,0.00,Wunderground v.1.15,2013-03-03 16:14:00,
2013-03-03 08:24:00,40.1,30.7,30.24,West,269,0.0,0.0,69,0.00,,,0.00,Wunderground v.1.15,2013-03-03 16:24:00,
2013-03-03 08:29:00,40.3,30.6,30.25,West,281,0.0,0.0,68,0.00,,,0.00,Wunderground v.1.15,2013-03-03 16:29:00,
2013-03-03 08:39:00,41.2,30.7,30.25,WNW,297,1.0,4.0,66,0.00,,,0.00,Wunderground v.1.15,2013-03-03 16:39:00,
2013-03-03 08:44:00,41.8,30.9,30.25,NW,305,2.0,4.0,65,0.00,,,0.00,Wunderground v.1.15,2013-03-03 16:44:00,
2013-03-03 08:54:00,42.3,31.0,30.25,West,262,3.0,4.0,64,0.00,,,0.00,Wunderground v.1.15,2013-03-03 16:54:00,
2013-03-03 08:59:00,42.5,31.6,30.25,NW,325,3.0,3.0,65,0.00,,,0.00,Wunderground v.1.15,2013-03-03 16:59:00,
2013-03-03 09:09:00,42.9,31.6,30.25,NW,314,3.0,3.0,64,0.00,,,0.00,Wunderground v.1.15,2013-03-03 17:09:00,
2013-03-03 09:14:00,43.2,31.8,30.25,West,263,3.0,3.0,64,0.00,,,0.00,Wunderground v.1.15,2013-03-03 17:14:00,
2013-03-03 09:24:00,43.6,31.8,30.25,WSW,245,3.0,3.0,63,0.00,,,0.00,Wunderground v.1.15,2013-03-03 17:24:00,
2013-03-03 09:30:00,44.1,31.9,30.25,WSW,252,3.0,3.0,62,0.00,,,0.00,Wunderground v.1.15,2013-03-03 17:30:00,
2013-03-03 09:39:00,44.3,32.5,30.25,NNW,347,2.0,3.0,63,0.00,,,0.00,Wunderground v.1.15,2013-03-03 17:39:00,
2013-03-03 09:45:00,44.5,31.9,30.25,NNW,334,3.0,4.0,61,0.00,,,0.00,Wunderground v.1.15,2013-03-03 17:45:00,
2013-03-03 09:54:00,44.6,32.0,30.25,NNW,336,4.0,6.0,61,0.00,,,0.00,Wunderground v.1.15,2013-03-03 17:54:00,
2013-03-03 09:59:00,44.6,32.0,30.25,WNW,284,4.0,7.0,61,0.00,,,0.00,Wunderground v.1.15,2013-03-03 17:59:00,
2013-03-03 10:09:00,45.1,32.8,30.25,NW,304,3.0,4.0,62,0.00,,,0.00,Wunderground v.1.15,2013-03-03 18:09:00,
2013-03-03 10:14:00,45.2,32.5,30.25,NW,309,4.0,7.0,61,0.00,,,0.00,Wunderground v.1.15,2013-03-03 18:14:00,
2013-03-03 10:24:00,45.4,33.1,30.25,NW,311,5.0,5.0,62,0.00,,,0.00,Wunderground v.1.15,2013-03-03 18:24:00,
2013-03-03 10:30:00,45.5,33.2,30.24,NW,312,4.0,4.0,62,0.00,,,0.00,Wunderground v.1.15,2013-03-03 18:30:00,
2013-03-03 10:39:00,45.7,33.0,30.24,NNW,331,4.0,4.0,61,0.00,,,0.00,Wunderground v.1.15,2013-03-03 18:39:00,
2013-03-03 10:44:00,45.8,33.1,30.24,WNW,286,5.0,6.0,61,0.00,,,0.00,Wunderground v.1.15,2013-03-03 18:44:00,
2013-03-03 10:54:00,45.8,33.5,30.24,NW,304,5.0,8.0,62,0.00,,,0.00,Wunderground v.1.15,2013-03-03 18:54:00,
2013-03-03 10:59:00,46.1,33.4,30.24,WSW,254,5.0,10.0,61,0.00,,,0.00,Wunderground v.1.15,2013-03-03 18:59:00,
2013-03-03 11:09:00,46.4,33.7,30.24,WNW,300,4.0,5.0,61,0.00,,,0.00,Wunderground v.1.15,2013-03-03 19:09:00,
2013-03-03 11:14:00,46.7,33.5,30.24,NW,309,5.0,5.0,60,0.00,,,0.00,Wunderground v.1.15,2013-03-03 19:14:00,
2013-03-03 11:24:00,46.5,34.2,30.24,NW,313,5.0,7.0,62,0.00,,,0.00,Wunderground v.1.15,2013-03-03 19:24:00,
2013-03-03 11:29:00,46.5,34.2,30.25,NW,306,5.0,6.0,62,0.00,,,0.00,Wunderground v.1.15,2013-03-03 19:29:00,
2013-03-03 11:39:00,46.7,34.4,30.25,West,281,5.0,5.0,62,0.00,,,0.00,Wunderground v.1.15,2013-03-03 19:39:00,
2013-03-03 11:44:00,46.5,34.2,30.25,NNW,333,6.0,6.0,62,0.00,,,0.00,Wunderground v.1.15,2013-03-03 19:44:00,
2013-03-03 11:54:00,46.8,34.5,30.25,NW,322,4.0,5.0,62,0.00,,,0.00,Wunderground v.1.15,2013-03-03 19:54:00,
2013-03-03 11:59:00,47.0,34.6,30.25,NNW,347,5.0,5.0,62,0.00,,,0.00,Wunderground v.1.15,2013-03-03 19:59:00,
2013-03-03 12:09:00,47.1,34.7,30.25,NNW,336,6.0,6.0,62,0.00,,,0.00,Wunderground v.1.15,2013-03-03 20:09:00,
2013-03-03 12:14:00,47.4,35.8,30.25,NW,316,5.0,6.0,64,0.00,,,0.00,Wunderground v.1.15,2013-03-03 20:14:00,
2013-03-03 12:24:00,47.4,35.0,30.25,West,276,3.0,8.0,62,0.00,,,0.00,Wunderground v.1.15,2013-03-03 20:24:00,
2013-03-03 12:29:00,47.1,34.3,30.25,NW,311,4.0,4.0,61,0.00,,,0.00,Wunderground v.1.15,2013-03-03 20:29:00,
2013-03-03 12:39:00,47.4,35.4,30.25,NW,306,4.0,5.0,63,0.00,,,0.00,Wunderground v.1.15,2013-03-03 20:39:00,
2013-03-03 12:44:00,48.2,35.8,30.25,NNW,333,3.0,5.0,62,0.00,,,0.00,Wunderground v.1.15,2013-03-03 20:44:00,
2013-03-03 12:54:00,48.0,35.2,30.25,WNW,296,5.0,5.0,61,0.00,,,0.00,Wunderground v.1.15,2013-03-03 20:54:00,
2013-03-03 12:59:00,48.5,36.1,30.24,NNW,345,4.0,4.0,62,0.00,,,0.00,Wunderground v.1.15,2013-03-03 20:59:00,
2013-03-03 13:09:00,48.8,35.5,30.24,West,266,4.0,4.0,60,0.00,,,0.00,Wunderground v.1.15,2013-03-03 21:09:00,
2013-03-03 13:14:00,49.2,35.5,30.24,NNW,347,3.0,4.0,59,0.00,,,0.00,Wunderground v.1.15,2013-03-03 21:14:00,
2013-03-03 13:24:00,48.6,36.2,30.24,NW,323,4.0,4.0,62,0.00,,,0.00,Wunderground v.1.15,2013-03-03 21:24:00,
2013-03-03 13:29:00,48.6,36.2,30.24,West,281,3.0,6.0,62,0.00,,,0.00,Wunderground v.1.15,2013-03-03 21:29:00,
2013-03-03 13:39:00,48.6,36.2,30.24,NW,309,3.0,3.0,62,0.00,,,0.00,Wunderground v.1.15,2013-03-03 21:39:00,
2013-03-03 13:44:00,48.8,36.4,30.24,West,268,3.0,8.0,62,0.00,,,0.00,Wunderground v.1.15,2013-03-03 21:44:00,
2013-03-03 13:54:00,48.5,36.1,30.24,WNW,296,5.0,5.0,62,0.00,,,0.00,Wunderground v.1.15,2013-03-03 21:54:00,
2013-03-03 13:59:00,48.3,36.7,30.24,WNW,287,4.0,5.0,64,0.00,,,0.00,Wunderground v.1.15,2013-03-03 21:59:00,
2013-03-03 14:09:00,48.2,36.2,30.24,West,273,5.0,5.0,63,0.00,,,0.00,Wunderground v.1.15,2013-03-03 22:09:00,
2013-03-03 14:14:00,48.5,36.5,30.24,North,350,4.0,5.0,63,0.00,,,0.00,Wunderground v.1.15,2013-03-03 22:14:00,
2013-03-03 14:24:00,47.9,35.1,30.24,West,269,4.0,4.0,61,0.00,,,0.00,Wunderground v.1.15,2013-03-03 22:24:00,
2013-03-03 14:29:00,48.2,35.4,30.24,WNW,297,4.0,5.0,61,0.00,,,0.00,Wunderground v.1.15,2013-03-03 22:29:00,
2013-03-03 14:39:00,48.8,35.5,30.24,WNW,289,4.0,4.0,60,0.00,,,0.00,Wunderground v.1.15,2013-03-03 22:39:00,
2013-03-03 14:44:00,49.1,35.8,30.25,West,266,4.0,4.0,60,0.00,,,0.00,Wunderground v.1.15,2013-03-03 22:44:00,
2013-03-03 14:54:00,48.6,35.3,30.25,WNW,285,6.0,7.0,60,0.00,,,0.00,Wunderground v.1.15,2013-03-03 22:54:00,
2013-03-03 14:59:00,48.2,35.8,30.25,NW,305,5.0,5.0,62,0.00,,,0.00,Wunderground v.1.15,2013-03-03 22:59:00,
2013-03-03 15:09:00,48.2,35.4,30.25,WSW,252,5.0,5.0,61,0.00,,,0.00,Wunderground v.1.15,2013-03-03 23:09:00,
2013-03-03 15:14:00,48.0,35.6,30.25,West,275,5.0,5.0,62,0.00,,,0.00,Wunderground v.1.15,2013-03-03 23:14:00,
2013-03-03 15:24:00,47.9,35.5,30.25,NW,304,4.0,5.0,62,0.00,,,0.00,Wunderground v.1.15,2013-03-03 23:24:00,
2013-03-03 15:29:00,47.6,35.6,30.25,NW,314,5.0,5.0,63,0.00,,,0.00,Wunderground v.1.15,2013-03-03 23:29:00,
2013-03-03 15:39:00,47.6,36.0,30.25,NW,315,3.0,6.0,64,0.00,,,0.00,Wunderground v.1.15,2013-03-03 23:39:00,
2013-03-03 15:44:00,47.4,35.4,30.25,WNW,295,4.0,6.0,63,0.00,,,0.00,Wunderground v.1.15,2013-03-03 23:44:00,
2013-03-03 15:54:00,47.3,35.7,30.25,West,265,4.0,5.0,64,0.00,,,0.00,Wunderground v.1.15,2013-03-03 23:54:00,
2013-03-03 15:59:00,47.4,35.8,30.25,NW,319,4.0,4.0,64,0.00,,,0.00,Wunderground v.1.15,2013-03-03 23:59:00,
2013-03-03 16:09:00,47.3,35.7,30.25,NNW,336,4.0,4.0,64,0.00,,,0.00,Wunderground v.1.15,2013-03-04 00:09:00,
2013-03-03 16:14:00,47.0,35.4,30.25,WNW,297,4.0,4.0,64,0.00,,,0.00,Wunderground v.1.15,2013-03-04 00:14:00,
2013-03-03 16:24:00,46.7,35.6,30.25,NW,324,4.0,4.0,65,0.00,,,0.00,Wunderground v.1.15,2013-03-04 00:24:00,
2013-03-03 16:29:00,46.7,35.2,30.26,NNW,339,4.0,6.0,64,0.00,,,0.00,Wunderground v.1.15,2013-03-04 00:29:00,
2013-03-03 16:39:00,46.4,35.3,30.26,NW,319,4.0,4.0,65,0.00,,,0.00,Wunderground v.1.15,2013-03-04 00:39:00,
2013-03-03 16:44:00,46.2,35.1,30.26,WNW,296,4.0,4.0,65,0.00,,,0.00,Wunderground v.1.15,2013-03-04 00:44:00,
2013-03-03 16:54:00,46.1,35.0,30.26,WNW,286,3.0,6.0,65,0.00,,,0.00,Wunderground v.1.15,2013-03-04 00:54:00,
2013-03-03 16:59:00,45.8,34.7,30.26,West,270,4.0,5.0,65,0.00,,,0.00,Wunderground v.1.15,2013-03-04 00:59:00,
2013-03-03 17:09:00,45.4,34.3,30.26,WNW,286,5.0,5.0,65,0.00,,,0.00,Wunderground v.1.15,2013-03-04 01:09:00,
2013-03-03 17:14:00,45.1,34.8,30.26,NW,315,5.0,5.0,67,0.00,,,0.00,Wunderground v.1.15,2013-03-04 01:14:00,
2013-03-03 17:24:00,44.5,35.0,30.26,WNW,286,2.0,4.0,69,0.00,,,0.00,Wunderground v.1.15,2013-03-04 01:24:00,
2013-03-03 17:29:00,44.2,35.0,30.27,West,262,1.0,2.0,70,0.00,,,0.00,Wunderground v.1.15,2013-03-04 01:29:00,
2013-03-03 17:39:00,43.6,34.8,30.27,West,266,2.0,2.0,71,0.00,,,0.00,Wunderground v.1.15,2013-03-04 01:39:00,
2013-03-03 17:44:00,43.5,35.1,30.27,West,266,1.0,2.0,72,0.00,,,0.00,Wunderground v.1.15,2013-03-04 01:44:00,
2013-03-03 17:54:00,43.1,35.0,30.27,WSW,249,2.0,2.0,73,0.00,,,0.00,Wunderground v.1.15,2013-03-04 01:54:00,
2013-03-03 17:59:00,42.9,35.2,30.28,WSW,248,2.0,4.0,74,0.00,,,0.00,Wunderground v.1.15,2013-03-04 01:59:00,
2013-03-03 18:09:00,42.6,34.9,30.28,WSW,248,1.0,1.0,74,0.00,,,0.00,Wunderground v.1.15,2013-03-04 02:09:00,
2013-03-03 18:14:00,42.5,35.1,30.28,SW,234,1.0,1.0,75,0.00,,,0.00,Wunderground v.1.15,2013-03-04 02:14:00,
2013-03-03 18:24:00,42.2,35.5,30.28,WSW,252,2.0,2.0,77,0.00,,,0.00,Wunderground v.1.15,2013-03-04 02:24:00,
2013-03-03 18:29:00,42.1,35.4,30.28,WSW,252,1.0,1.0,77,0.00,,,0.00,Wunderground v.1.15,2013-03-04 02:29:00,
2013-03-03 18:39:00,41.8,35.1,30.28,WSW,252,1.0,1.0,77,0.00,,,0.00,Wunderground v.1.15,2013-03-04 02:39:00,
2013-03-03 18:44:00,41.5,35.2,30.28,WSW,252,0.0,1.0,78,0.00,,,0.00,Wunderground v.1.15,2013-03-04 02:44:00,
2013-03-03 18:54:00,41.1,35.4,30.28,WSW,241,1.0,1.0,80,0.00,,,0.00,Wunderground v.1.15,2013-03-04 02:54:00,
2013-03-03 18:59:00,41.1,35.4,30.29,WSW,241,0.0,0.0,80,0.00,,,0.00,Wunderground v.1.15,2013-03-04 02:59:00,
2013-03-03 19:09:00,41.3,35.6,30.29,WSW,238,0.0,3.0,80,0.00,,,0.00,Wunderground v.1.15,2013-03-04 03:09:00,
2013-03-03 19:14:00,41.5,35.8,30.29,WSW,238,0.0,3.0,80,0.00,,,0.00,Wunderground v.1.15,2013-03-04 03:14:00,
2013-03-03 19:24:00,41.5,35.8,30.29,SW,233,1.0,4.0,80,0.00,,,0.00,Wunderground v.1.15,2013-03-04 03:24:00,
2013-03-03 19:29:00,41.8,35.8,30.29,SW,217,2.0,2.0,79,0.00,,,0.00,Wunderground v.1.15,2013-03-04 03:29:00,
2013-03-03 19:39:00,41.9,35.9,30.29,South,178,1.0,2.0,79,0.00,,,0.00,Wunderground v.1.15,2013-03-04 03:39:00,
2013-03-03 19:44:00,41.9,35.9,30.28,South,173,2.0,2.0,79,0.00,,,0.00,Wunderground v.1.15,2013-03-04 03:44:00,
2013-03-03 19:53:00,41.8,36.1,30.28,South,175,1.0,2.0,80,0.00,,,0.00,Wunderground v.1.15,2013-03-04 03:53:00,
2013-03-03 19:59:00,41.8,36.1,30.28,South,175,0.0,0.0,80,0.00,,,0.00,Wunderground v.1.15,2013-03-04 03:59:00,
2013-03-03 20:09:00,41.6,35.9,30.28,South,175,0.0,1.0,80,0.00,,,0.00,Wunderground v.1.15,2013-03-04 04:09:00,
2013-03-03 20:14:00,41.6,35.9,30.28,South,175,1.0,1.0,80,0.00,,,0.00,Wunderground v.1.15,2013-03-04 04:14:00,
2013-03-03 20:24:00,41.2,35.5,30.28,South,175,0.0,1.0,80,0.00,,,0.00,Wunderground v.1.15,2013-03-04 04:24:00,
2013-03-03 20:29:00,40.8,35.4,30.28,South,175,0.0,0.0,81,0.00,,,0.00,Wunderground v.1.15,2013-03-04 04:29:00,
2013-03-03 20:39:00,39.2,34.8,30.28,South,175,1.0,1.0,84,0.00,,,0.00,Wunderground v.1.15,2013-03-04 04:39:00,
2013-03-03 20:44:00,38.9,34.5,30.28,South,175,1.0,1.0,84,0.00,,,0.00,Wunderground v.1.15,2013-03-04 04:44:00,
2013-03-03 20:53:00,38.3,34.2,30.28,South,175,0.0,3.0,85,0.00,,,0.00,Wunderground v.1.15,2013-03-04 04:53:00,
2013-03-03 20:59:00,37.9,34.1,30.28,South,175,0.0,0.0,86,0.00,,,0.00,Wunderground v.1.15,2013-03-04 04:59:00,
2013-03-03 21:03:00,37.8,34.3,30.28,South,175,0.0,1.0,87,0.00,,,0.00,Wunderground v.1.15,2013-03-04 05:03:00,
2013-03-03 21:08:00,37.6,34.1,30.28,South,175,0.0,0.0,87,0.00,,,0.00,Wunderground v.1.15,2013-03-04 05:08:00,
2013-03-03 21:14:00,37.3,33.8,30.28,South,175,0.0,0.0,87,0.00,,,0.00,Wunderground v.1.15,2013-03-04 05:14:00,
2013-03-03 21:19:00,36.9,33.4,30.28,South,175,0.0,0.0,87,0.00,,,0.00,Wunderground v.1.15,2013-03-04 05:19:00,
2013-03-03 21:29:00,35.9,32.7,30.28,South,175,0.0,0.0,88,0.00,,,0.00,Wunderground v.1.15,2013-03-04 05:29:00,
2013-03-03 21:38:00,35.3,32.4,30.28,South,175,0.0,0.0,89,0.00,,,0.00,Wunderground v.1.15,2013-03-04 05:38:00,
2013-03-03 21:44:00,35.0,32.4,30.28,South,175,0.0,0.0,90,0.00,,,0.00,Wunderground v.1.15,2013-03-04 05:44:00,
2013-03-03 21:53:00,34.7,32.3,30.28,South,175,0.0,0.0,91,0.00,,,0.00,Wunderground v.1.15,2013-03-04 05:53:00,
2013-03-03 21:59:00,34.7,32.3,30.29,South,175,0.0,0.0,91,0.00,,,0.00,Wunderground v.1.15,2013-03-04 05:59:00,
2013-03-03 22:09:00,34.1,31.7,30.29,South,175,0.0,0.0,91,0.00,,,0.00,Wunderground v.1.15,2013-03-04 06:09:00,
2013-03-03 22:14:00,33.8,31.7,30.28,South,175,0.0,0.0,92,0.00,,,0.00,Wunderground v.1.15,2013-03-04 06:14:00,
2013-03-03 22:24:00,33.5,31.4,30.28,South,175,0.0,0.0,92,0.00,,,0.00,Wunderground v.1.15,2013-03-04 06:24:00,
2013-03-03 22:29:00,33.4,31.3,30.28,South,175,0.0,1.0,92,0.00,,,0.00,Wunderground v.1.15,2013-03-04 06:29:00,
2013-03-03 22:38:00,33.1,31.0,30.28,South,175,0.0,0.0,92,0.00,,,0.00,Wunderground v.1.15,2013-03-04 06:38:00,
2013-03-03 22:44:00,32.8,30.7,30.29,South,175,0.0,0.0,92,0.00,,,0.00,Wunderground v.1.15,2013-03-04 06:44:00,
2013-03-03 22:54:00,33.1,31.3,30.29,South,175,0.0,0.0,93,0.00,,,0.00,Wunderground v.1.15,2013-03-04 06:54:00,
2013-03-03 22:59:00,32.8,31.0,30.29,South,175,0.0,0.0,93,0.00,,,0.00,Wunderground v.1.15,2013-03-04 06:59:00,
2013-03-03 23:09:00,32.2,30.4,30.29,South,175,0.0,0.0,93,0.00,,,0.00,Wunderground v.1.15,2013-03-04 07:09:00,
2013-03-03 23:14:00,32.1,30.3,30.29,South,175,0.0,0.0,93,0.00,,,0.00,Wunderground v.1.15,2013-03-04 07:14:00,
2013-03-03 23:23:00,31.9,30.4,30.29,South,175,0.0,0.0,94,0.00,,,0.00,Wunderground v.1.15,2013-03-04 07:23:00,
2013-03-03 23:29:00,31.8,30.3,30.29,South,175,0.0,0.0,94,0.00,,,0.00,Wunderground v.1.15,2013-03-04 07:29:00,
2013-03-03 23:38:00,31.6,30.1,30.29,South,175,0.0,0.0,94,0.00,,,0.00,Wunderground v.1.15,2013-03-04 07:38:00,
2013-03-03 23:44:00,31.5,30.0,30.29,South,175,0.0,0.0,94,0.00,,,0.00,Wunderground v.1.15,2013-03-04 07:44:00,
2013-03-03 23:53:00,31.3,29.8,30.29,South,175,0.0,0.0,94,0.00,,,0.00,Wunderground v.1.15,2013-03-04 07:53:00,
2013-03-03 23:59:00,31.5,30.2,30.29,South,175,0.0,0.0,95,0.00,,,0.00,Wunderground v.1.15,2013-03-04 07:59:00,